User: anonymous   Login
Location: ??????
(38.0131°N, 23.7723°E)
Time: 07:38:46
(UTC+00:00)
Language:

ATLAS 5 CENTAUR R/B - Orbit

View from above orbital plane
View from above orbital plane
View from above satellite
View from above satellite

Ground track
Ground track

The orbit data is extracted from the following two-line orbital elements,

1 31702U 07027B   22004.25790261 0.00000700  00000-0  11385-3 0    00
2 31702  63.3525  50.2677 0458877  21.2741 338.7259 14.19152620    00
Epoch (UTC): 04 January 2022 06:11:22
Eccentricity: 0.0458877
inclination: 63.3525°
perigee height: 497 km
apogee height: 1159 km
right ascension of ascending node: 50.2677°
argument of perigee: 21.2741°
revolutions per day: 14.19152620
mean anomaly at epoch: 338.7259°
orbit number at epoch: 0

The dashed part of the orbit path shows where the satellite is in the earth's shadow,  

DLR